Regional Weather Roundup
Issued by NWS

Home | Current Version | Previous Version | Text Only | Print | Product List | Glossary Off
Versions: 1 2 3 4 5 6 7 8 9 10 11 12 13 14 15 16 17 18 19 20 21 22 23 24 25 26 27

000
ASUS45 KBOU 232107
RWRCO

WEATHER ROUNDUP FOR COLORADO
NATIONAL WEATHER SERVICE DENVER/BOULDER CO
300 PM MDT SAT SEP 23 2017

NOTE: "FAIR" INDICATES FEW OR NO CLOUDS BELOW 12000 FEET WITH NO
SIGNIFICANT WEATHER AND/OR OBSTRUCTIONS TO VISIBILITY.

COZ001>005-013-030-031-232200-
...NORTHWEST COLORADO...

CITY           SKY/WX    TMP DP  RH WIND       PRES   REMARKS
CRAIG          CLOUDY    53  41  63 E14G21    29.90F
HAYDEN         FAIR      50  41  71 E17       29.94F
MEEKER         FAIR      57  41  55 E15G21    29.88F
RABBIT EARS PA LGT SNOW  32  32 100 SW6       30.08R WCI  26
STEAMBOAT SPGS CLOUDY    46  39  78 NE8       29.96S
WALDEN         CLOUDY    41  36  81 CALM      30.04S
$$

COZ006>008-011-232200-
...WEST CENTRAL VALLEYS...

CITY           SKY/WX    TMP DP  RH WIND       PRES   REMARKS
GRAND JUNCTION FAIR      60  43  53 SE23      29.81F
MONTROSE       CLOUDY    56  43  61 S20G26    29.89F
EAGLE          CLOUDY    48  43  82 E7        30.01R
RIFLE          PTSUNNY   56  46  69 E10       29.89F
DELTA          NOT AVBL
NUCLA          FAIR      59  41  51 S9        29.89F
$$

COZ017>023-064>068-232200-
...SOUTHWEST COLORADO...

CITY           SKY/WX    TMP DP  RH WIND       PRES   REMARKS
DURANGO        LGT RAIN  51  45  79 NW6       29.94F
CORTEZ         FAIR      62  44  51 S9        29.86F
PAGOSA SPRINGS RAIN      49  42  75 W8        30.02R
TELLURIDE      LGT RAIN  39  36  87 SE21      30.05S
WOLF CREEK PAS HVY SNOW  32  32 100 S21G31    30.15F VSB<1/4 WCI  20
$$

COZ009-010-012-014-032>034-037-058>063-232200-
...CENTRAL COLORADO...

CITY           SKY/WX    TMP DP  RH WIND       PRES   REMARKS
ASPEN          LGT RAIN  43  40  89 SE7       30.00S
BUENA VISTA    RAIN      50  45  83 E23G29    29.94R
COPPER MTN     SNOW      34  30  86 MISG      30.14R VSB 1/4
BERTHOUD PASS  CLOUDY    34  27  75 E10G18    30.15F WCI  26
COTTONWOOD PAS CLOUDY    52  45  76 SW7       30.02R
GUNNISON       LGT RAIN  52  42  69 SW7       29.94S
KREMMLING      RAIN      46  39  76 CALM      30.02R
LEADVILLE      LGT RAIN  41  38  89 N8        30.02R FOG
MONARCH PASS   CLOUDY    36  36 100 SW29G41   30.22S VSB<1/4
SALIDA         CLOUDY    56  48  73 CALM      29.99R
SUNLIGHT       SNOW      32  32 100 S12G21    30.11S VSB 1/2 WCI  23
WILKERSON PASS CLOUDY    45  37  76 SW9G18    30.14R
$$

COZ069>075-232200-
...SAN LUIS VALLEY/SANGRE DE CRISTO MOUNTAINS...

CITY           SKY/WX    TMP DP  RH WIND       PRES   REMARKS
ALAMOSA        PTSUNNY   66  43  43 S24G36    29.86F
DEL NORTE      PTSUNNY   54  46  74 W17G24    29.94F
LA VETA PASS   PTSUNNY   55  34  44 S17G28    30.17F
SAGUACHE       CLOUDY    57  46  67 NW10      29.93F
$$

COZ035-036-038>040-232200-
...NORTHERN COLORADO FRONT RANGE...

CITY           SKY/WX    TMP DP  RH WIND       PRES   REMARKS
DENVER INTL AP CLOUDY    52  42  69 N10       29.93R
DMNS CITY PARK   N/A     52  43  71 NE8G17    29.91F
AURORA         CLOUDY    53  44  71 N12       29.92F
FRONT RANGE AP CLOUDY    55  45  67 N8        29.93S
ERIE MUNI ARPT CLOUDY    52  43  70 NE6       29.99S
BOULDER MUN AP RAIN      50  46  87 N6        29.93F
CENTENNIAL     LGT RAIN  51  44  77 N14       29.92F
BROOMFIELD     CLOUDY    52  43  71 N6        29.94F
FORT COLLINS   CLOUDY    51  43  74 NE8       29.95F
LONGMONT       DRIZZLE   52  45  75 NE8       29.95F
$$

COZ041-046-047-076>085-087-088-232200-
...PIKES PEAK/PALMER DIVIDE AND SOUTHERN FOOTHILLS...

CITY           SKY/WX    TMP DP  RH WIND       PRES   REMARKS
COLO. SPRINGS  LGT RAIN  56  53  90 S10       29.94R
A. F. ACADEMY  PTSUNNY   58  49  74 SE16      29.92S
SCHRIEVER AFB  CLOUDY    55  52  89 E15G21    29.93F
CHEYENNE MTN   LGT RAIN  53  50  92 SE10      29.91R
ELLICOTT       CLOUDY   N/A N/A N/A SE22G29   29.91S
FALCON         CLOUDY    53  51  92 S8G17     29.97R
FORT CARSON    DRIZZLE   57  54  88 SE9       29.91R
LIMON            N/A    N/A N/A N/A MISG      29.91F
MONUMENT HILL  CLOUDY    52  48  87 S13       29.97R
CANON CITY     CLOUDY    64  54  68 NE16G23   29.87R
WALSENBURG     CLOUDY    64  55  72 SE15G30   29.85F
TRINIDAD       LGT RAIN  62  54  74 SE13      29.91R
$$

COZ042>045-048>051-090-091-232200-
...NORTHEAST COLORADO...

CITY           SKY/WX    TMP DP  RH WIND       PRES   REMARKS
GREELEY ARPT   CLOUDY    51  44  77 NE5       29.95S
AKRON          LGT RAIN  50  48  93 SE9       29.94F
BURLINGTON     PTSUNNY   63  51  65 NW5       29.91F
WRAY           LGT RAIN  57  52  82 E8        29.91F
YUMA           MOCLDY    50  50 100 E7        29.91F
STERLING       LGT RAIN  48  46  93 E3        29.94S
HOLYOKE        CLOUDY    59  54  82 E6        29.92F
FORT MORGAN    CLOUDY    51  43  76 NE9       29.93F
$$

COZ086-089-092>099-232200-
...SOUTHEAST COLORADO...

CITY           SKY/WX    TMP DP  RH WIND       PRES   REMARKS
PUEBLO         LGT RAIN  61  56  83 SE17      29.85R
LA JUNTA       LGT RAIN  60  59  96 E14       29.89R FOG
LAMAR          LGT RAIN  63  60  90 E3        29.87R FOG
SPRINGFIELD      N/A     65  60  84 SW7       29.90R
$$




USA.gov is the U.S. government's official web portal to all federal, state and local government web resources and services.